#timestamp,LO_Frequency,Hit,StdDev 
1547020815.9,286046998.5,N
1547020835.7,286046998.8,N
1547020855.8,286047000.5,N
1547020875.6,286047002.5,N
1547020895.5,286047001.3,N
1547020915.3,286047000.2,N
1547020935.1,286046998.2,N
1547020955.9,286047000.0,N
1547020975.7,286047000.6,N
1547020995.5,286046999.7,N
1547021015.4,286047002.1,N
1547021035.2,286047002.0,N
1547021055.1,286047001.0,N
1547021056.0,286047001.0,N
1547021075.8,286046998.6,N
1547021095.6,286047000.7,N
1547021115.5,286047002.3,N
1547021135.3,286047000.3,N
1547021155.1,286046999.7,N
1547021175.9,286047004.1,Y
1547021195.7,286047003.5,P
1547021215.6,286047003.8,N
1547021235.4,286047004.2,N
1547021255.2,286047003.6,N
1547021275.1,286047002.7,N
1547021276.0,286047002.7,N
1547021295.8,286047002.7,N
1547021315.6,286047002.3,N
1547021335.5,286047001.2,N
1547021355.3,286046998.6,N
1547021375.2,286046998.2,N
1547021395.9,286046999.5,N
1547021415.7,286046999.0,N
1547021435.6,286047001.2,N
1547021455.4,286046999.4,N
1547021475.2,286046998.5,N
1547021495.1,286046998.2,N
1547021496.0,286046998.2,N
1547021515.8,286047001.0,N
1547021535.1,286046998.2,N
1547021536.0,286046998.2,N
1547021555.8,286046999.5,N
1547021575.6,286046998.2,N
1547021595.5,286046998.5,N
1547021615.3,286046998.2,N
1547021635.1,286047000.9,N
1547021655.9,286047001.1,N
1547021675.7,286046998.6,N
1547021695.6,286047000.6,N
1547021715.4,286047000.2,N
1547021735.2,286047000.7,N
1547021755.1,286047002.5,N
1547021756.0,286047002.5,N
1547021775.8,286047000.4,N
1547021795.6,286047000.4,N
1547021815.5,286047000.3,N
1547021835.3,286046998.1,N
1547021855.2,286047001.0,N
1547021875.9,286047001.0,N
1547021895.7,286047000.9,N
1547021915.6,286047000.7,N
1547021935.4,286046998.8,N
1547021955.3,286046998.8,N
1547021975.1,286047001.2,N
1547021976.0,286047001.2,N
1547021995.8,286047001.2,N
1547022015.7,286046998.5,N
1547022035.5,286046999.4,N
1547022055.3,286046998.3,N
1547022075.2,286047001.0,N
1547022095.0,286047000.1,N
1547022095.9,286047000.1,N
1547022115.8,286047002.0,N
1547022135.6,286047002.3,N
1547022155.4,286047002.4,N
1547022175.3,286046999.9,N
1547022195.1,286047000.0,N
1547022215.8,286047001.0,N
1547022235.7,286047000.9,N
1547022255.5,286046998.5,N
1547022275.4,286046998.2,N
1547022295.2,286047000.9,N
1547022315.0,286047000.5,N
1547022315.9,286047000.5,N
1547022335.8,286047001.0,N
1547022355.6,286046998.4,N
1547022375.4,286047000.8,N
1547022395.3,286046998.4,N
1547022415.1,286047001.2,N
1547022435.9,286047001.2,N
1547022455.7,286047002.6,N
1547022475.5,286046999.9,N
1547022495.4,286047000.2,N
1547022515.2,286047002.8,N
1547022535.0,286047000.8,N
1547022535.9,286047000.8,N
1547022555.8,286047000.6,N
1547022575.6,286047000.9,N
1547022595.5,286046999.0,N
1547022615.3,286047000.4,N
1547022635.1,286047000.8,N
1547022655.9,286047000.4,N
1547022675.7,286047001.2,N
1547022695.6,286047000.1,N
1547022715.4,286046999.7,N
1547022735.2,286047000.4,N
1547022755.1,286047000.1,N
1547022756.0,286047000.1,N
1547022775.8,286046999.9,N
1547022795.6,286047002.7,N
1547022815.5,286047000.0,N
1547022835.3,286047002.0,N
1547022855.2,286047000.8,N
1547022875.9,286047000.9,N
1547022895.7,286047000.7,N
1547022915.7,286047000.6,N
1547022935.5,286047001.9,N
1547022955.3,286047002.7,N
1547022975.2,286047001.6,N
1547022995.0,286047002.6,N
1547022995.9,286047002.6,N
1547023015.7,286047001.6,N
1547023035.6,286047001.0,N
1547023055.4,286047001.9,N
1547023075.3,286047002.2,N
1547023095.1,286047003.6,Y
1547023115.8,286047001.7,P
1547023135.7,286047004.0,P
1547023155.5,286047003.8,N
1547023175.4,286047002.0,N
1547023195.2,286047004.3,Y
1547023215.0,286047000.7,P
1547023215.9,286047000.7,N
1547023235.8,286047000.4,N
1547023255.6,286046999.4,N
1547023275.5,286046996.5,Y
1547023295.3,286046997.2,P
1547023315.1,286046997.2,N
1547023335.9,286046996.9,N
1547023355.7,286046997.1,N
1547023375.6,286046997.2,N
1547023395.4,286046997.4,N
1547023415.2,286046995.2,Y
1547023435.1,286047000.8,P
1547023436.0,286047000.8,N
1547023455.8,286047001.1,N
1547023475.6,286046998.8,N
1547023495.5,286046996.5,N
1547023515.3,286046999.3,N
1547023535.2,286046998.3,N
1547023555.9,286046997.0,N
1547023575.7,286046998.6,N
1547023595.6,286046998.2,N
1547023615.4,286047000.7,N
1547023635.2,286047000.3,N
1547023655.1,286047000.9,N
1547023656.0,286047000.9,N
1547023675.8,286047001.0,N
1547023695.7,286047002.3,N
1547023715.5,286047001.6,N
1547023735.3,286047000.2,N
1547023755.2,286047002.8,N
1547023775.0,286047002.8,N
1547023775.9,286047002.8,N
1547023795.7,286047002.8,N
1547023815.6,286047000.7,N
1547023835.4,286046998.3,N
1547023855.3,286047001.1,N
1547023875.1,286046998.6,N
1547023876.0,286046998.6,N
1547023895.8,286047000.8,N
1547023915.7,286046998.7,N
1547023935.5,286046999.2,N
1547023955.3,286046999.2,N
1547023975.2,286046996.5,N
1547023995.0,286046998.8,N
1547023995.9,286046998.8,N
1547024015.8,286046997.0,N
1547024035.6,286046998.2,N
1547024055.4,286047000.9,N
1547024075.3,286047000.4,N
1547024095.1,286047000.6,N
1547024115.9,286047000.7,N
1547024135.7,286046998.2,N
1547024155.5,286047000.5,N
1547024175.4,286046999.9,N
1547024195.2,286046998.6,N
1547024215.0,286046996.7,N
1547024215.9,286046996.7,N
1547024235.8,286046996.8,N
1547024255.6,286046999.4,N
1547024275.5,286047000.5,N
1547024295.3,286047001.0,N
1547024315.1,286046998.3,N
1547024335.9,286046998.3,N
1547024355.7,286046998.1,N
1547024375.5,286047000.8,N
1547024395.4,286046999.7,N
